Location: Marcé
(47.5801°N, 0.3280°W)
Time: 00:02:58
(UTC+01:00)

Vanguard 2 - Pass Details

Date: 30 November 2021
Orbit: 553 x 2936 km, 32.9° (Epoch: 20 January)

Event Time Altitude Azimuth Distance (km) Brightness Sun altitude
Rises 20:10:44 0° 261° (W) 4,482 12.6 -29.3°
Reaches altitude 10° 20:14:08 10° 248° (WSW) 3,851 11.9 -29.9°
Maximum altitude 20:21:58 24° 200° (SSW) 3,563 11.0 -31.2°
Drops below altitude 10° 20:32:32 10° 155° (SSE) 5,305 11.5 -33.0°
Enters shadow 20:34:23 - 151° (SSE) 5,705 11.7 -33.3°
